Location: Montreal
(45.5000°N, 73.5833°W)
Time: 23:58:39
(UTC-04:00)

Tiangong 1 - Pass Details

Date: 10 October 2017
Orbit: 294 x 321 km, 42.8° (Epoch: 16 October)

Event Time Altitude Azimuth Distance (km) Brightness Sun altitude
Rises 19:20:44 0° 261° (W) 2,041 6.6 -11.9°
Reaches altitude 10° 19:22:46 10° 255° (WSW) 1,207 4.9 -12.3°
Maximum altitude 19:25:22 46° 180° (S) 430 1.2 -12.7°
Enters shadow 19:26:30 26° 121° (ESE) 650 1.7 -12.9°
